Location: Street
(51.1247°N, 2.7429°W)
Time: 15:04:01
(UTC+01:00)

METEOR M2 - Visible Passes

Search period start: 01 April 2023 00:00
Search period end: 11 April 2023 00:00
Orbit: 819 x 826 km, 98.4° (Epoch: 01 April)

Date Brightness Start Highest point End Pass type
(mag) Time Alt. Az. Time Alt. Az. Time Alt. Az.
04 Apr ? 06:00:13 10° ENE 06:02:09 12° E 06:04:04 10° ESE visible
05 Apr ? 20:30:34 10° WSW 20:32:18 11° W 20:34:03 10° WNW visible
10 Apr ? 20:30:56 10° W 20:32:32 11° W 20:34:08 10° WNW visible
